2022�N�x�@��C������Ԃɂ�鑪�茋��,,,,,,,,,,,,,,,
,,,,,,,,,,,,,,,
�P�@����n�_,,,,,,,,,,,,,,,
�t����s���͌ˁi�t����s���͌˒�5����9�Ԓn3),,,,,,,,,,,,,,,
,,,,,,,,,,,,,,,
�Q�@���Ԓl�i�m��l�j��2023�N1��11���`2023�N2��2��,,,,,,,,,,,,,,,
,,,,,,,,,,,,,,,
,�N,��,��,��,SO2,SPM,Ox,CO,NO,NO2,PM2.5,���x,���x,����,����
,,,,,ppm,mg/m3,ppm,ppm,ppm,ppm,��g/m3,��,%,�ő�,m/s
H04,2023,1,11,1,***,0.01,0.003,***,***,***,6,0.7,69.8,NNW,0.4
H04,2023,1,11,2,0.001,0.009,0.004,0.3,0.01,0.03,9,0.1,70.6,NNE,0.3
H04,2023,1,11,3,0.001,0.009,0.006,0.3,0.009,0.024,8,0.5,69.9,NE,1.1
H04,2023,1,11,4,0.001,0.009,0.008,0.2,0.003,0.02,8,-0.5,73.4,CALM,0.2
H04,2023,1,11,5,0.001,0.009,0.007,0.3,0.003,0.02,9,-0.5,74.9,SE,0.9
H04,2023,1,11,6,0.001,0.007,0.006,0.3,0.004,0.022,8,-0.6,71.9,NNE,0.7
H04,2023,1,11,7,0.001,0.01,0.003,0.4,0.016,0.027,11,-0.4,70.9,NE,1.7
H04,2023,1,11,8,0.001,0.011,0.005,0.4,0.021,0.025,10,0.3,61.2,NE,0.8
H04,2023,1,11,9,0.001,0.019,0.01,0.4,0.024,0.019,12,2.5,52.7,NNE,1.1
H04,2023,1,11,10,0.001,0.022,0.015,0.4,0.021,0.021,12,5.3,40.8,N,2
H04,2023,1,11,11,0.001,0.017,0.027,0.2,0.008,0.013,6,7.3,35.6,NW,1.6
H04,2023,1,11,12,0.001,0.016,0.03,0.2,0.006,0.009,9,8.3,33.2,NW,1.6
H04,2023,1,11,13,0.002,0.017,0.029,0.2,0.006,0.012,8,9.1,31.4,NW,1
H04,2023,1,11,14,0.002,0.018,0.027,0.2,0.009,0.013,10,11.7,27.5,WNW,1.7
H04,2023,1,11,15,0.001,0.012,0.03,0.2,0.006,0.01,2,12.7,21.3,WNW,2
H04,2023,1,11,16,0.002,0.006,0.029,0.2,0.004,0.01,2,12.6,21.5,W,2
H04,2023,1,11,17,0.001,0.005,0.025,0.2,0.004,0.014,6,10.7,30.7,W,1.3
H04,2023,1,11,18,0.001,0.007,0.016,0.3,0.004,0.021,7,8.8,40.9,SE,0.7
H04,2023,1,11,19,0.001,0.006,0.008,0.5,0.008,0.029,5,7.5,49.2,CALM,0.2
H04,2023,1,11,20,0.001,0.008,0.002,0.8,0.023,0.035,6,4.9,60.7,NNE,0.5
H04,2023,1,11,21,0.001,0.01,0.003,0.8,0.03,0.031,12,3.1,67.3,CALM,0.1
H04,2023,1,11,22,0.001,0.009,0.003,0.7,0.024,0.027,13,1.5,75.4,CALM,0
H04,2023,1,11,23,0.001,0.012,0.004,0.6,0.031,0.025,15,1.3,75.2,N,0.6
H04,2023,1,11,24,0.001,0.006,0.003,0.3,0.008,0.024,7,1.8,67.9,NE,1.9
H04,2023,1,12,1,0.001,0.005,0.003,0.3,0.007,0.022,11,0.4,72.8,CALM,0
H04,2023,1,12,2,0,0.006,0.003,0.3,0.016,0.022,8,0,75.6,NE,0.3
H04,2023,1,12,3,0.001,0.006,0.006,0.3,0.005,0.018,8,0.7,64.1,NNW,0.8
H04,2023,1,12,4,0.001,0.01,0.002,0.3,0.024,0.022,12,-0.5,75.6,NE,0.5
H04,2023,1,12,5,0.001,0.009,0.001,0.4,0.035,0.022,12,-1.2,77.5,CALM,0.1
H04,2023,1,12,6,0.001,0.009,0.001,0.4,0.04,0.022,11,-0.5,70.9,NW,0.6
H04,2023,1,12,7,0.001,0.009,0.002,0.5,0.07,0.026,11,-1.4,75,CALM,0.2
H04,2023,1,12,8,0.001,0.011,0.002,0.8,0.088,0.027,12,0.2,69,CALM,0.2
H04,2023,1,12,9,0.002,0.017,0.004,0.6,0.073,0.027,12,2.5,54.3,SW,0.5
H04,2023,1,12,10,0.002,0.023,0.009,0.5,0.042,0.025,19,5.8,31.4,N,0.8
H04,2023,1,12,11,0.002,0.022,0.014,0.4,0.023,0.022,13,9.3,28.3,NNE,1
H04,2023,1,12,12,0.002,0.021,0.023,0.3,0.012,0.016,11,11.6,29.8,WNW,1.6
H04,2023,1,12,13,0.004,0.022,0.029,0.3,0.008,0.016,13,13.2,29,WNW,1.5
H04,2023,1,12,14,0.004,0.02,0.032,0.3,0.007,0.015,13,14.7,26.4,W,1.3
H04,2023,1,12,15,0.004,0.016,0.036,0.3,0.005,0.014,8,15.3,27.8,WNW,2.2
H04,2023,1,12,16,0.003,0.015,0.037,0.3,0.003,0.014,10,15.1,29.1,WNW,2.2
H04,2023,1,12,17,0.003,0.015,0.03,0.3,0.007,0.022,15,12.9,39.2,WSW,0.9
H04,2023,1,12,18,0.002,0.02,0.012,0.6,0.027,0.038,17,10.4,51,SE,0.3
H04,2023,1,12,19,0.002,0.023,0.002,1,0.053,0.051,20,8.6,59.4,ENE,1.2
H04,2023,1,12,20,0.002,0.021,0.005,0.7,0.014,0.041,17,7.8,65,E,0.8
H04,2023,1,12,21,0.002,0.022,0.003,0.9,0.018,0.041,22,6.4,68.2,ESE,0.8
H04,2023,1,12,22,0.002,0.024,0.003,0.8,0.021,0.035,20,5,73.1,CALM,0.2
H04,2023,1,12,23,0.001,0.019,0.006,0.5,0.007,0.029,16,4.3,75,SSE,0.4
H04,2023,1,12,24,0.002,0.012,0.012,0.4,0.004,0.021,13,5.1,61.1,NE,1.1
H04,2023,1,13,1,0.001,0.015,0.008,0.3,0.006,0.021,13,3.3,72.1,CALM,0.2
H04,2023,1,13,2,0.001,0.015,0.002,0.4,0.019,0.027,14,3,78.5,CALM,0.2
H04,2023,1,13,3,0.001,0.014,0.002,0.4,0.018,0.028,15,2.8,73.8,N,0.3
H04,2023,1,13,4,0.001,0.012,0.004,0.3,0.009,0.022,13,1.7,77.6,NNE,0.3
H04,2023,1,13,5,0.001,0.012,0.001,0.4,0.023,0.024,13,2.4,74.6,WSW,0.5
H04,2023,1,13,6,0.002,0.015,0.001,0.4,0.032,0.027,14,1.8,74.6,CALM,0
H04,2023,1,13,7,0.001,0.012,0.001,0.5,0.056,0.03,14,2.8,67.3,NNE,0.9
H04,2023,1,13,8,0.002,0.014,0.002,0.7,0.082,0.03,15,2.9,70.6,CALM,0
H04,2023,1,13,9,0.003,0.024,0.004,0.7,0.094,0.034,18,5.4,54.7,WNW,0.7
H04,2023,1,13,10,0.004,0.028,0.006,0.6,0.062,0.032,22,7.7,41.8,NW,0.9
H04,2023,1,13,11,0.003,0.023,0.013,0.4,0.027,0.028,16,10,35.4,NW,0.9
H04,2023,1,13,12,0.005,0.03,0.018,0.4,0.019,0.028,21,11.4,36.6,NNE,0.5
H04,2023,1,13,13,0.005,0.027,0.019,0.4,0.018,0.03,21,12.4,32.2,NNW,1
H04,2023,1,13,14,0.005,0.031,0.019,0.4,0.018,0.035,20,13.4,33.4,W,0.9
H04,2023,1,13,15,0.006,0.029,0.02,0.4,0.012,0.041,22,13.2,36.7,WSW,1.4
H04,2023,1,13,16,0.007,0.025,0.015,0.4,0.011,0.046,19,13.1,37.4,WNW,0.6
H04,2023,1,13,17,0.004,0.027,0.015,0.4,0.002,0.043,21,12.8,39.3,NW,0.7
H04,2023,1,13,18,0.004,0.03,0.007,0.5,0.003,0.051,25,12.6,40.8,CALM,0.1
H04,2023,1,13,19,0.003,0.029,0.005,0.6,0.006,0.051,26,10.2,76.8,ENE,0.4
H04,2023,1,13,20,0.002,0.028,0.002,0.6,0.012,0.051,25,9.2,84.3,NNW,1.5
H04,2023,1,13,21,0.002,0.03,0.002,0.6,0.006,0.042,31,8.9,93.4,WNW,0.7
H04,2023,1,13,22,0.002,0.027,0.003,0.5,0.004,0.036,24,8.9,94.2,N,0.4
H04,2023,1,13,23,0.001,0.027,0.005,0.5,0.002,0.03,24,8.8,94.5,W,0.8
H04,2023,1,13,24,0.002,0.026,0.005,0.5,0.003,0.027,26,9,95.2,NW,1
H04,2023,1,14,1,0.001,0.024,0.005,0.4,0.002,0.024,22,9.2,96.5,NW,0.4
H04,2023,1,14,2,0.001,0.018,0.007,0.4,0.002,0.021,16,9.2,96.8,CALM,0
H04,2023,1,14,3,0.001,0.017,0.004,0.4,0.002,0.023,15,9.3,97.3,CALM,0.2
H04,2023,1,14,4,0.001,0.012,0.007,0.3,0.001,0.019,9,9.4,97.5,NNW,0.7
H04,2023,1,14,5,0.001,0.011,0.002,0.3,0.002,0.024,13,9.5,97.9,W,0.3
H04,2023,1,14,6,0.001,0.009,0.001,0.3,0.011,0.026,10,9.8,98.1,WNW,0.4
H04,2023,1,14,7,0.001,0.008,0.004,0.3,0.005,0.025,8,10.1,98,NW,0.3
H04,2023,1,14,8,0.001,0.01,0.003,0.3,0.013,0.028,10,10.3,97.8,CALM,0.2
H04,2023,1,14,9,0.001,0.013,0.004,0.3,0.011,0.027,8,10.6,95.9,CALM,0.1
H04,2023,1,14,10,0.001,0.011,0.006,0.3,0.012,0.025,10,10.8,94.7,NW,0.4
H04,2023,1,14,11,0.001,0.007,0.008,0.3,0.01,0.025,7,11.2,95.4,NW,0.5
H04,2023,1,14,12,0.001,0.008,0.007,0.4,0.012,0.024,10,11.5,95.4,SSW,0.4
H04,2023,1,14,13,0.002,0.01,0.008,0.4,0.01,0.024,10,11.9,93.8,NNW,0.7
H04,2023,1,14,14,0.002,0.008,0.012,0.3,0.006,0.019,5,12.1,91.7,N,1.4
H04,2023,1,14,15,0.002,0.008,0.017,0.3,0.004,0.015,8,12.9,87,N,0.8
H04,2023,1,14,16,0.002,0.012,0.013,0.3,0.005,0.016,6,13.5,87.7,NW,1.1
H04,2023,1,14,17,0.002,0.011,0.013,0.3,0.002,0.016,8,13.2,89.1,NW,0.8
H04,2023,1,14,18,0.002,0.009,0.008,0.4,0.002,0.022,10,12.8,91.2,NNW,1
H04,2023,1,14,19,0.001,0.01,0.006,0.4,0.002,0.023,8,12.3,92.7,NNW,1
H04,2023,1,14,20,0.002,0.012,0.003,0.4,0.004,0.022,11,12.2,93.2,N,1.5
H04,2023,1,14,21,0.001,0.009,0.005,0.4,0.003,0.021,6,12.2,91.7,NNE,0.9
H04,2023,1,14,22,0.001,0.008,0.007,0.3,0.004,0.017,7,12,89,WNW,0.4
H04,2023,1,14,23,0.001,0.004,0.013,0.3,0.002,0.015,5,11.3,90.1,NW,0.5
H04,2023,1,14,24,0.001,0.006,0.011,0.3,0.002,0.016,8,11.1,92.8,NNE,1.6
H04,2023,1,15,1,0.001,0.007,0.011,0.3,0.001,0.013,2,11.3,89,NNW,1
H04,2023,1,15,2,0.001,0.003,0.022,0.3,0.001,0.007,2,11.2,87.6,N,0.7
H04,2023,1,15,3,0.001,0.005,0.016,0.3,0.001,0.009,1,9.7,89.8,SW,0.5
H04,2023,1,15,4,0.001,0.002,0.021,0.3,0,0.007,1,10.2,84.2,NNW,1.2
H04,2023,1,15,5,0.001,0.002,0.023,0.3,0.001,0.008,5,8.3,91.4,NE,0.4
H04,2023,1,15,6,0.001,0.004,0.02,0.3,0.001,0.009,2,8.8,90.1,N,1
H04,2023,1,15,7,0.001,0.004,0.019,0.3,0.001,0.01,2,8.3,87.4,NNE,1.2
H04,2023,1,15,8,0.001,0.004,0.019,0.3,0.002,0.012,5,8.7,86.6,NNE,1
H04,2023,1,15,9,0.001,0.005,0.025,0.3,0.002,0.008,5,10.5,75.1,NW,1.3
H04,2023,1,15,10,0.001,0.01,0.027,0.3,0.003,0.006,5,12.5,58.2,NNW,1.4
H04,2023,1,15,11,0.001,0.007,0.032,0.3,0.001,0.003,5,13.5,53.9,NNW,1.8
H04,2023,1,15,12,0.001,0.002,0.035,0.3,0.002,0.003,5,14.2,51.7,WNW,1.5
H04,2023,1,15,13,0.001,0.008,0.041,0.3,0.001,0.004,1,14.9,51.3,N,1.9
H04,2023,1,15,14,0.001,0.005,0.041,0.3,0.001,0.004,5,14.7,54.9,NNW,1.1
H04,2023,1,15,15,0.002,0.008,0.038,0.3,0.001,0.005,5,14.1,59.2,WNW,1.7
H04,2023,1,15,16,0.001,0.009,0.032,0.3,0.001,0.007,8,13.2,66.5,WNW,1.5
H04,2023,1,15,17,0.001,0.006,0.032,0.3,0.001,0.007,4,12.3,71.5,N,1
H04,2023,1,15,18,0.002,0.007,0.03,0.3,0.001,0.008,5,11.5,73.9,NNW,1.1
H04,2023,1,15,19,0.001,0.006,0.024,0.3,0.001,0.011,4,11.1,77.7,NW,0.9
H04,2023,1,15,20,0.001,0.006,0.017,0.4,0.001,0.016,7,10.5,80.7,CALM,0.2
H04,2023,1,15,21,0.001,0.007,0.015,0.4,0.001,0.016,9,9.9,82.1,NW,2
H04,2023,1,15,22,0.001,0.007,0.016,0.3,0.001,0.015,6,9.8,81.5,NW,1.1
H04,2023,1,15,23,0.001,0.006,0.014,0.3,0.001,0.016,7,9.7,79.6,WNW,1
H04,2023,1,15,24,0.001,0.009,0.015,0.3,0.001,0.013,7,9.4,79.3,NNW,1.1
H04,2023,1,16,1,0.001,0.007,0.015,0.3,0.001,0.013,9,9.4,79.7,N,0.8
H04,2023,1,16,2,0.001,0.008,0.012,0.3,0.001,0.013,7,9.3,83.7,NNE,0.9
H04,2023,1,16,3,0.002,0.006,0.014,0.3,0.002,0.012,3,9.4,75.6,WNW,1.1
H04,2023,1,16,4,0.001,0.005,0.019,0.2,0.002,0.012,5,9,79.6,NNE,0.4
H04,2023,1,16,5,0.001,0.009,0.008,0.3,0.001,0.016,6,9.1,85.2,NW,0.4
H04,2023,1,16,6,0.001,0.006,0.002,0.3,0.006,0.018,5,8.9,88.5,NW,0.5
H04,2023,1,16,7,0.001,0.008,0.001,0.4,0.018,0.019,5,8.9,90.1,CALM,0.1
H04,2023,1,16,8,0.001,0.012,0.001,0.5,0.031,0.019,11,9.1,89.9,CALM,0.1
H04,2023,1,16,9,0.001,0.017,0.002,0.6,0.046,0.018,13,9.4,89,SW,0.5
H04,2023,1,16,10,0.002,0.012,0.002,0.5,0.039,0.023,9,10.3,79.2,WNW,0.6
H04,2023,1,16,11,0.002,0.013,0.006,0.4,0.018,0.023,8,10.5,76.8,WNW,1.3
H04,2023,1,16,12,0.001,0.01,0.014,0.3,0.011,0.016,10,11.6,70.1,WNW,2.2
H04,2023,1,16,13,0.001,0.01,0.021,0.3,0.004,0.01,7,11.4,71.8,NW,1.1
H04,2023,1,16,14,0.001,0.008,0.022,0.2,0.004,0.01,7,12,52.8,N,3
H04,2023,1,16,15,0.002,0.005,0.03,0.2,0.003,0.007,2,12.5,47.6,NNE,4.5
H04,2023,1,16,16,0.002,0.002,0.034,0.2,0.002,0.005,0,11.7,40.2,N,4
H04,2023,1,16,17,0.001,0.001,0.035,0.2,0.001,0.004,2,10.2,43,NNE,4.5
H04,2023,1,16,18,0.001,0.001,0.033,0.2,0.001,0.006,1,8.8,46.2,N,2.6
H04,2023,1,16,19,0.001,0,0.034,0.2,0.001,0.005,1,7.9,44.2,NNW,2.8
H04,2023,1,16,20,0.001,0,0.029,0.2,0.001,0.008,0,6.9,55.8,NW,1.7
H04,2023,1,16,21,0,0,0.028,0.2,0.001,0.008,2,6.4,56.8,N,1.2
H04,2023,1,16,22,0.001,0.001,0.025,0.2,0.001,0.011,0,5.7,61.5,N,1.6
H04,2023,1,16,23,0.001,0,0.025,0.2,0.001,0.01,0,5.1,58.3,N,1.9
H04,2023,1,16,24,0.001,0,0.026,0.2,0.001,0.01,2,4.2,61.3,NE,0.6
H04,2023,1,17,1,0.001,0.003,0.027,0.2,0,0.009,3,3.9,57,NNW,1.4
H04,2023,1,17,2,0.001,0.002,0.024,0.2,0,0.014,4,3.6,58.1,N,1.1
H04,2023,1,17,3,0,0.002,0.027,0.2,0,0.01,4,3.3,54.9,NW,1.6
H04,2023,1,17,4,0.001,0.002,0.027,0.2,0,0.01,3,2.4,61.2,N,0.4
H04,2023,1,17,5,0.001,0.004,0.025,0.2,0,0.012,3,2.3,62.4,NNE,1.1
H04,2023,1,17,6,0,0.007,0.019,0.2,0.003,0.017,4,1.7,63.7,CALM,0.2
H04,2023,1,17,7,0.001,0.005,0.008,0.3,0.007,0.028,4,1.2,67.1,NNW,1.3
H04,2023,1,17,8,0.001,0.006,0.011,0.4,0.011,0.028,5,2.7,54,N,1.5
H04,2023,1,17,9,0,0.009,0.027,0.2,0.01,0.015,2,4.2,48.7,NNE,2.8
H04,2023,1,17,10,0.001,0.007,0.035,0.2,0.004,0.007,6,5.1,43.4,N,2.6
H04,2023,1,17,11,0.001,0.009,0.034,0.2,0.006,0.009,4,6.7,37.5,NW,2.4
H04,2023,1,17,12,0.001,0.012,0.035,0.2,0.007,0.011,5,7.8,32.7,NNW,1.9
H04,2023,1,17,13,0.001,0.013,0.037,0.2,0.005,0.007,6,9.5,32.1,N,1.7
H04,2023,1,17,14,0.002,0.013,0.036,0.2,0.006,0.011,6,10.4,26.6,WNW,2
H04,2023,1,17,15,0.002,0.012,0.037,0.2,0.005,0.009,5,10.6,29.4,WSW,2.7
H04,2023,1,17,16,0.002,0.008,0.036,0.2,0.004,0.012,5,9.9,32.6,WNW,1.3
H04,2023,1,17,17,0.001,0.005,0.034,0.2,0.006,0.012,5,9.3,39.4,WSW,1.1
H04,2023,1,17,18,0.001,0.004,0.028,0.3,0.004,0.017,6,8.8,45.5,S,0.6
H04,2023,1,17,19,0.001,0.007,0.016,0.4,0.007,0.029,7,7.8,54.2,ENE,0.4
H04,2023,1,17,20,0.001,0.01,0.012,0.5,0.005,0.029,11,7.4,55,NNW,0.5
H04,2023,1,17,21,0.001,0.01,0.013,0.4,0.003,0.024,7,6.2,60.6,CALM,0.1
H04,2023,1,17,22,0.001,0.01,0.007,0.4,0.005,0.026,9,6.1,62.8,CALM,0.1
H04,2023,1,17,23,0.001,0.012,0.005,0.4,0.003,0.032,11,6.2,58.9,NW,0.5
H04,2023,1,17,24,0.001,0.011,0.004,0.4,0.004,0.029,11,4.4,69.7,CALM,0.2
H04,2023,1,18,1,***,0.013,0.002,***,***,***,12,3.8,73.3,SW,0.4
H04,2023,1,18,2,0.001,0.011,0.002,0.4,0.014,0.026,13,2.7,80.5,CALM,0.2
H04,2023,1,18,3,0.001,0.012,0.001,0.4,0.014,0.025,11,3.3,76.8,N,1
H04,2023,1,18,4,0.002,0.012,0.002,0.3,0.007,0.022,13,3.4,75,ENE,1.3
H04,2023,1,18,5,0.002,0.012,0.001,0.3,0.009,0.023,12,3.8,75,N,0.5
H04,2023,1,18,6,0.002,0.014,0.002,0.3,0.005,0.021,14,3.5,74.3,NNW,0.6
H04,2023,1,18,7,0.003,0.013,0.001,0.3,0.017,0.02,16,3,76.8,WNW,0.3
H04,2023,1,18,8,0.003,0.016,0.002,0.5,0.042,0.025,17,3.7,73.8,NNW,0.8
H04,2023,1,18,9,0.003,0.015,0.008,0.4,0.023,0.02,10,5,64,NNW,1.3
H04,2023,1,18,10,0.002,0.013,0.012,0.3,0.014,0.02,10,6.4,54.3,NW,0.9
H04,2023,1,18,11,0.002,0.011,0.018,0.3,0.011,0.016,9,8.2,47.7,NW,1.5
H04,2023,1,18,12,0.002,0.017,0.023,0.3,0.012,0.016,7,11.1,47,WNW,2.7
H04,2023,1,18,13,0.001,0.013,0.037,0.2,0.005,0.007,1,12.5,37.7,WNW,4
H04,2023,1,18,14,0.001,0.01,0.04,0.2,0.002,0.006,4,12.7,33.6,NW,4
H04,2023,1,18,15,0.001,0.011,0.039,0.2,0.002,0.006,5,11.3,36.8,NW,3
H04,2023,1,18,16,0.001,0.008,0.039,0.2,0.002,0.005,3,10.6,39.7,NW,3.4
H04,2023,1,18,17,0.001,0.005,0.038,0.2,0.001,0.005,6,9.1,47.9,NNW,3.1
H04,2023,1,18,18,0.001,0.005,0.034,0.2,0.001,0.009,7,8.3,50.8,NNW,2.5
H04,2023,1,18,19,0.001,0.004,0.037,0.2,0.001,0.006,5,7.8,49,NNW,3
H04,2023,1,18,20,0.001,0.006,0.031,0.3,0.001,0.011,8,6.6,65.1,NW,1.7
H04,2023,1,18,21,0.002,0.008,0.021,0.3,0.001,0.017,9,5.8,68.7,NW,1.4
H04,2023,1,18,22,0.001,0.007,0.019,0.3,0.001,0.019,8,5.2,71,CALM,0.2
H04,2023,1,18,23,0.001,0.009,0.019,0.3,0.001,0.019,7,5,73.8,NNW,1.1
H04,2023,1,18,24,0.002,0.009,0.019,0.3,0.002,0.017,6,4.2,79,E,0.6
H04,2023,1,19,1,0.002,0.009,0.015,0.3,0.001,0.018,8,3.8,80,NNE,0.4
H04,2023,1,19,2,0.001,0.01,0.013,0.3,0.002,0.018,11,2.8,81.7,NNE,0.4
H04,2023,1,19,3,0.001,0.011,0.009,0.3,0.002,0.021,9,2.7,81.2,N,0.7
H04,2023,1,19,4,0.001,0.011,0.008,0.3,0.004,0.021,9,2,80.3,E,0.7
H04,2023,1,19,5,0.001,0.01,0.003,0.3,0.005,0.023,10,0.9,80.2,ENE,0.6
H04,2023,1,19,6,0.001,0.009,0.002,0.3,0.019,0.022,12,0.6,83.6,CALM,0.1
H04,2023,1,19,7,0.001,0.01,0.001,0.5,0.048,0.029,13,0.4,82.1,ENE,0.3
H04,2023,1,19,8,0.001,0.012,0.003,0.5,0.032,0.022,11,1.7,76.3,NE,1.5
H04,2023,1,19,9,0.002,0.02,0.009,0.5,0.027,0.018,15,4.2,66.3,NE,1.7
H04,2023,1,19,10,0.002,0.022,0.017,0.3,0.014,0.014,15,7.2,50,ENE,1.6
H04,2023,1,19,11,0.004,0.018,0.024,0.3,0.011,0.013,7,9.1,44.1,WNW,1.3
H04,2023,1,19,12,0.001,0.015,0.031,0.2,0.007,0.012,8,10,43.8,WNW,1.9
H04,2023,1,19,13,0.002,0.014,0.035,0.2,0.004,0.007,6,11.1,42,WNW,1.8
H04,2023,1,19,14,0.002,0.009,0.035,0.2,0.005,0.009,6,11.7,38.4,W,2.2
H04,2023,1,19,15,0.002,0.009,0.038,0.2,0.004,0.007,3,11.6,37.7,W,2.5
H04,2023,1,19,16,0.001,0.008,0.037,0.2,0.002,0.007,6,10.3,48.2,WNW,3
H04,2023,1,19,17,0.001,0.005,0.033,0.2,0.002,0.009,6,9.2,54.9,WNW,2.2
H04,2023,1,19,18,0.002,0.006,0.026,0.3,0.004,0.015,9,8.4,59.7,W,1.8
H04,2023,1,19,19,0.002,0.005,0.023,0.3,0.003,0.018,7,7.5,63.7,W,0.4
H04,2023,1,19,20,0.001,0.006,0.021,0.3,0.001,0.018,6,6.9,65.5,NW,0.6
H04,2023,1,19,21,0.001,0.006,0.021,0.3,0.001,0.019,6,6.1,69.9,NNW,0.6
H04,2023,1,19,22,0.001,0.007,0.012,0.4,0.004,0.024,8,4.1,79.3,E,0.4
H04,2023,1,19,23,0.001,0.008,0.003,0.6,0.008,0.029,9,3.5,83.4,CALM,0.1
H04,2023,1,19,24,0.001,0.009,0.003,0.5,0.009,0.027,4,3.2,81.8,NE,1
H04,2023,1,20,1,0.001,0.007,0.005,0.3,0.003,0.02,9,3,80.9,NE,2.2
H04,2023,1,20,2,0.001,0.008,0.005,0.3,0.004,0.019,9,2.2,85.3,ENE,0.5
H04,2023,1,20,3,0.001,0.008,0.005,0.4,0.003,0.018,8,2.2,81,NE,1.3
H04,2023,1,20,4,0.001,0.009,0.004,0.3,0.017,0.019,7,1.1,85.9,CALM,0
H04,2023,1,20,5,0.001,0.009,0.001,0.3,0.014,0.02,7,0.8,86.6,NNE,0.4
H04,2023,1,20,6,0.001,0.008,0.001,0.4,0.037,0.021,9,0.5,86,CALM,0.1
H04,2023,1,20,7,0.001,0.009,0.001,0.5,0.062,0.024,12,0.8,84.7,NE,0.9
H04,2023,1,20,8,0.001,0.019,0.003,0.6,0.054,0.024,21,2,79.5,NE,0.6
H04,2023,1,20,9,0.001,0.017,0.006,0.5,0.032,0.019,8,4.4,68.3,NE,0.9
H04,2023,1,20,10,0.001,0.019,0.013,0.4,0.026,0.024,12,6.6,52.2,NNW,1.3
H04,2023,1,20,11,0.001,0.018,0.023,0.3,0.012,0.016,11,8.6,43.8,NNW,2.2
H04,2023,1,20,12,0.001,0.017,0.035,0.3,0.006,0.011,11,10.6,38.1,NNW,2
H04,2023,1,20,13,0.002,0.02,0.04,0.3,0.003,0.008,8,11.1,36,NNW,2.3
H04,2023,1,20,14,0.002,0.017,0.042,0.3,0.004,0.009,9,12.8,33.4,W,4.1
H04,2023,1,20,15,0.002,0.018,0.042,0.2,0.004,0.01,11,12.6,30.3,WNW,2.7
H04,2023,1,20,16,0.002,0.019,0.042,0.2,0.002,0.009,10,11.3,39.3,WNW,3.2
H04,2023,1,20,17,0.002,0.013,0.039,0.2,0.001,0.009,12,9.9,48.4,NW,2.9
H04,2023,1,20,18,0.002,0.011,0.038,0.3,0.002,0.01,14,8.9,55.2,WNW,2
H04,2023,1,20,19,0.001,0.012,0.039,0.3,0.001,0.008,12,8.2,59.7,W,3
H04,2023,1,20,20,0.001,0.017,0.042,0.3,0.001,0.006,15,7,66.7,NNW,3.2
H04,2023,1,20,21,0.001,0.015,0.04,0.3,0.001,0.006,12,6.4,65.6,NW,2.6
H04,2023,1,20,22,0.001,0.009,0.04,0.2,0,0.005,9,5.5,68.7,NW,3.1
H04,2023,1,20,23,0.001,0.006,0.039,0.2,0,0.004,5,5.3,65.4,WNW,1.6
H04,2023,1,20,24,0,0.009,0.037,0.2,0,0.005,7,5,58,NW,1.7
H04,2023,1,21,1,0.001,0.006,0.036,0.2,0.001,0.004,5,4.3,62.2,W,2.4
H04,2023,1,21,2,0.001,0.004,0.031,0.2,0.001,0.007,5,3.2,71.8,W,2.2
H04,2023,1,21,3,0.001,0.003,0.029,0.2,0.001,0.008,1,3.4,65.5,WNW,2
H04,2023,1,21,4,0.001,0.006,0.027,0.2,0,0.008,5,3.5,60.4,NNW,2.4
H04,2023,1,21,5,0.001,0.004,0.033,0.2,0,0.003,6,3.4,53.6,NNW,2.9
H04,2023,1,21,6,0,0.006,0.032,0.2,0,0.005,6,2.8,56.2,N,1.7
H04,2023,1,21,7,0.001,0.005,0.025,0.2,0,0.01,2,2.2,57.6,N,2
H04,2023,1,21,8,0.001,0.008,0.022,0.3,0.003,0.015,4,3,48.4,NNW,1.8
H04,2023,1,21,9,0,0.012,0.031,0.2,0.002,0.007,5,4.1,42.3,NNW,3.1
H04,2023,1,21,10,0.001,0.011,0.035,0.2,0.004,0.007,7,5.2,35.3,N,2.9
H04,2023,1,21,11,0.001,0.012,0.036,0.2,0.004,0.004,6,5.9,33.4,NNW,2.1
H04,2023,1,21,12,0.001,0.011,0.036,0.2,0.003,0.005,5,6.3,34.8,NNW,2.1
H04,2023,1,21,13,0.001,0.011,0.037,0.2,0.002,0.004,5,7.8,31.2,N,2.9
H04,2023,1,21,14,0.001,0.012,0.037,0.2,0.003,0.003,5,8.8,25.4,WNW,3.1
H04,2023,1,21,15,0.001,0.009,0.038,0.2,0.002,0.004,6,8.5,25.3,NW,3.7
H04,2023,1,21,16,0.001,0.006,0.038,0.2,0.001,0.003,4,7.8,26.1,NW,3
H04,2023,1,21,17,0.001,0,0.037,0.2,0.001,0.003,4,5.9,29.1,NW,3.8
H04,2023,1,21,18,0,0,0.035,0.2,0,0.004,2,5.2,35.5,NW,2.4
H04,2023,1,21,19,0,0,0.034,0.2,0.001,0.005,4,4.6,38.9,NNW,2.4
H04,2023,1,21,20,0,0,0.032,0.2,0.001,0.007,6,4,42.1,NNW,1.9
H04,2023,1,21,21,0,0.002,0.029,0.2,0.001,0.008,2,3.3,45.5,NNW,1.7
H04,2023,1,21,22,0.001,0.003,0.027,0.2,0.001,0.009,4,2.8,47.4,NNW,1.6
H04,2023,1,21,23,0.001,0.006,0.024,0.2,0.001,0.011,5,2,50.5,N,1.2
H04,2023,1,21,24,0,0.003,0.025,0.2,0.001,0.009,6,1.5,52.3,NW,0.9
H04,2023,1,22,1,0,0.005,0.023,0.2,0,0.009,6,0.9,59,NNE,0.7
H04,2023,1,22,2,0.002,0.005,0.023,0.2,0,0.009,6,1.5,49.4,N,1.3
H04,2023,1,22,3,0.002,0.008,0.023,0.2,0,0.008,11,0.4,60,NE,1.3
H04,2023,1,22,4,0.001,0.007,0.02,0.3,0,0.009,11,-0.1,59.9,NE,1.2
H04,2023,1,22,5,0.001,0.01,0.02,0.3,0,0.008,13,0,59.4,ENE,1.6
H04,2023,1,22,6,0.001,0.008,0.018,0.3,0,0.009,6,-0.6,62.8,NE,1.9
H04,2023,1,22,7,0,0.004,0.015,0.2,0.001,0.01,5,-0.8,65,NE,1.3
H04,2023,1,22,8,0.001,0.005,0.016,0.3,0.002,0.01,4,0.3,56.3,NNE,1.3
H04,2023,1,22,9,0.001,0.013,0.02,0.3,0.004,0.009,4,2.2,47.6,N,1.5
H04,2023,1,22,10,0.001,0.015,0.025,0.2,0.004,0.007,7,4.8,41.8,NNW,2.2
H04,2023,1,22,11,0.001,0.013,0.03,0.2,0.002,0.004,5,6.2,39.7,NW,1.5
H04,2023,1,22,12,0.001,0.013,0.032,0.2,0.002,0.005,6,7.6,41.8,WNW,1.4
H04,2023,1,22,13,0.001,0.01,0.036,0.2,0.001,0.004,7,8.9,37,NW,2
H04,2023,1,22,14,0.001,0.012,0.039,0.2,0.001,0.003,3,9.9,35.9,WNW,2.6
H04,2023,1,22,15,0.001,0.011,0.04,0.2,0.001,0.003,5,10.3,36.8,WNW,2.5
H04,2023,1,22,16,0.001,0.008,0.038,0.2,0.001,0.003,5,9.3,43.1,WNW,2.5
H04,2023,1,22,17,0.001,0.006,0.036,0.2,0.001,0.005,6,8.2,51.6,W,2.3
H04,2023,1,22,18,0.001,0.003,0.032,0.2,0.001,0.007,5,7.3,56.8,W,2.8
H04,2023,1,22,19,0.001,0.004,0.03,0.2,0.001,0.007,6,6.8,60.7,WNW,2.1
H04,2023,1,22,20,0.001,0.006,0.029,0.2,0.001,0.008,4,6.7,58.6,NW,1.1
H04,2023,1,22,21,0.001,0.008,0.03,0.2,0.001,0.009,6,6.6,56.8,NW,0.8
H04,2023,1,22,22,0.001,0.011,0.028,0.2,0.001,0.009,6,6.3,58.8,NW,0.3
H04,2023,1,22,23,0.001,0.013,0.019,0.3,0.002,0.015,12,5.9,60.9,NW,0.3
H04,2023,1,22,24,0.001,0.012,0.015,0.3,0.001,0.016,9,5.4,68.4,E,0.7
H04,2023,1,23,1,0.001,0.012,0.012,0.3,0.001,0.016,9,5.4,66.3,ENE,0.9
H04,2023,1,23,2,0.001,0.011,0.013,0.3,0.002,0.015,10,5.3,64.4,N,0.3
H04,2023,1,23,3,0.001,0.013,0.016,0.3,0.001,0.013,10,5.6,57.9,NNW,1.7
H04,2023,1,23,4,0.002,0.009,0.019,0.2,0.001,0.012,12,5.6,59,NE,0.7
H04,2023,1,23,5,0.001,0.01,0.017,0.2,0.001,0.012,8,5.4,59.6,CALM,0.1
H04,2023,1,23,6,0.002,0.014,0.014,0.2,0.001,0.017,9,5.3,63.1,N,0.9
H04,2023,1,23,7,0.001,0.014,0.023,0.2,0.001,0.015,10,4.9,74.1,NNW,1.5
H04,2023,1,23,8,0.001,0.013,0.033,0.2,0.001,0.012,9,4.7,77.6,N,1.2
H04,2023,1,23,9,0.001,0.015,0.035,0.3,0.001,0.011,9,4.9,74.1,N,0.9
H04,2023,1,23,10,0.001,0.019,0.033,0.2,0.007,0.015,8,5.6,69.1,NNE,1.9
H04,2023,1,23,11,0.001,0.018,0.032,0.2,0.005,0.012,11,6.2,66.2,NE,1.4
H04,2023,1,23,12,0.002,0.021,0.03,0.2,0.007,0.013,14,6.9,60.7,NNE,0.6
H04,2023,1,23,13,0.001,0.022,0.029,0.3,0.006,0.017,11,7.3,57.5,NW,0.7
H04,2023,1,23,14,0.001,0.022,0.032,0.2,0.005,0.015,12,8.1,55.8,NNW,1.4
H04,2023,1,23,15,0.001,0.021,0.037,0.2,0.003,0.012,11,8.5,54.5,NNW,1.5
H04,2023,1,23,16,0.001,0.02,0.033,0.3,0.003,0.016,13,8.9,56.8,E,1.2
H04,2023,1,23,17,0.001,0.023,0.027,0.3,0.005,0.021,13,8.4,59.6,WSW,1.3
H04,2023,1,23,18,0.001,0.021,0.022,0.3,0.002,0.026,15,8.6,59.5,NW,0.7
H04,2023,1,23,19,0.001,0.021,0.018,0.4,0.002,0.029,12,7.8,66.4,NE,0.6
H04,2023,1,23,20,0.001,0.022,0.009,0.5,0.007,0.031,16,6.6,71.7,CALM,0
H04,2023,1,23,21,0.001,0.024,0.002,0.7,0.015,0.039,18,6.1,75.1,ENE,1
H04,2023,1,23,22,0.001,0.023,0.003,0.5,0.009,0.033,17,5.6,76.6,CALM,0.2
H04,2023,1,23,23,0.001,0.022,0.002,0.5,0.01,0.031,16,5.7,77.1,NE,1
H04,2023,1,23,24,0.001,0.023,0.003,0.4,0.007,0.028,17,5.5,76.7,ENE,0.7
H04,2023,1,24,1,0.001,0.025,0.004,0.4,0.01,0.028,18,5.4,75,ENE,1.4
H04,2023,1,24,2,0.001,0.022,0.004,0.3,0.006,0.024,18,4.6,77.9,CALM,0
H04,2023,1,24,3,0.001,0.026,0.002,0.4,0.012,0.025,19,4.6,80.3,NNE,0.7
H04,2023,1,24,4,0.001,0.024,0.002,0.3,0.008,0.023,18,4.3,80.8,NNE,1.2
H04,2023,1,24,5,0.001,0.02,0.003,0.3,0.006,0.023,16,4.9,77.5,NNE,1.2
H04,2023,1,24,6,0.001,0.015,0.008,0.3,0.003,0.023,12,5,74.5,NNW,0.8
H04,2023,1,24,7,0.001,0.017,0.005,0.3,0.008,0.026,13,5,75.4,NNE,0.7
H04,2023,1,24,8,0.002,0.023,0.003,0.5,0.035,0.028,21,5.1,76.7,ENE,1.4
H04,2023,1,24,9,0.002,0.021,0.005,0.5,0.035,0.029,19,6.6,67.6,NE,1.1
H04,2023,1,24,10,0.001,0.017,0.026,0.3,0.011,0.018,7,8.6,53.9,WNW,2.5
H04,2023,1,24,11,0.001,0.012,0.035,0.2,0.004,0.011,6,5.4,77,W,4.1
H04,2023,1,24,12,0.002,0.006,0.034,0.3,0.005,0.011,11,8.6,54.9,WNW,2.4
H04,2023,1,24,13,0.001,0.007,0.039,0.3,0.003,0.007,3,7.2,54.6,W,5.1
H04,2023,1,24,14,0.001,0.003,0.036,0.3,0.004,0.007,5,7.5,52.9,W,3.6
H04,2023,1,24,15,0.001,0.006,0.035,0.3,0.004,0.007,4,6.8,57.9,W,5.7
H04,2023,1,24,16,0.001,0,0.032,0.2,0.003,0.006,1,5.3,56.4,WNW,4.2
H04,2023,1,24,17,0.001,0,0.032,0.2,0.002,0.007,-1,3.4,66.6,W,5.4
H04,2023,1,24,18,0.001,0,0.034,0.2,0.001,0.007,2,2.7,57.1,W,4.5
H04,2023,1,24,19,0.001,0,0.033,0.2,0.001,0.005,3,-0.5,72.7,NNW,4.4
H04,2023,1,24,20,0,0,0.033,0.2,0,0.004,0,-0.5,51.6,NNW,4.7
H04,2023,1,24,21,0,0,0.033,0.2,0,0.004,-1,-1.1,44.7,N,4.1
H04,2023,1,24,22,0,0,0.034,0.2,0,0.003,1,-1.4,45.7,NNE,3.1
H04,2023,1,24,23,0,0,0.033,0.2,0.001,0.004,3,-2.5,61.9,NW,2.8
H04,2023,1,24,24,0,0,0.033,0.2,0,0.003,1,-2.7,61.4,NNW,2.7
H04,2023,1,25,1,***,0,0.033,***,***,***,1,-2.8,62,NNW,1.7
H04,2023,1,25,2,0,0.003,0.034,0.2,0,0.003,1,-2.9,62.5,NW,2
H04,2023,1,25,3,0,0.001,0.034,0.2,0,0.003,0,-2.9,61.8,NNW,2.4
H04,2023,1,25,4,0,0,0.034,0.2,0,0.004,0,-3,64.4,NW,1.9
H04,2023,1,25,5,0,0.001,0.034,0.2,0,0.004,2,-3.1,64,NW,2.2
H04,2023,1,25,6,0,0.002,0.032,0.2,0.001,0.007,3,-3.3,65.9,WNW,1.8